Regional Weather Roundup
Issued by NWS Northern Indiana

Home | Current Version | Previous Version | Graphics & Text | Print | Product List | Glossary On
Versions: 1 2 3 4 5 6 7 8 9 10 11 12 13 14 15 16 17 18 19 20 21 22 23 24 25 26 27 28 29 30 31 32 33 34 35 36 37 38 39 40 41 42 43 44 45 46 47 48 49 50
922
ASUS43 KIWX 130210
RWRIWX

KIWX WEATHER ROUNDUP
NATIONAL WEATHER SERVICE NORTHERN INDIANA
900 PM EST FRI FEB 12 2016

NOTE: "FAIR" INDICATES FEW OR NO CLOUDS BELOW 12,000 FEET WITH NO
SIGNIFICANT WEATHER AND/OR OBSTRUCTIONS TO VISIBILITY.

* THESE STATIONS ARE NOT UNDER NWS QUALITY CONTROL. THEY ALSO MAY NOT
  REPORT WEATHER SUCH AS PRECIPITATION OR FOG.

INZ001>027-130300-
NORTHERN INDIANA

CITY           SKY/WX    TMP DP  RH WIND       PRES   REMARKS
GARY*          MOCLDY    18  -6  35 NW20      30.33R WCI   1
VALPARAISO     CLOUDY    17   0  47 NW17G28   30.28R WCI   1
MICHIGAN CITY* LGT SNOW  18   7  62 NW14G25   30.30R WCI   4
LAPORTE*       CLOUDY    18   7  62 NW24G31   30.27R HAZE    WCI   0
KNOX*          CLOUDY    18   3  53 NW22G31   30.28R WCI   0
SOUTH BEND     LGT SNOW  14  10  84 NW17      30.25R VSB 1   WCI  -3
ELKHART*       LGT SNOW  16   9  73 NW21G30   30.24R WCI  -2
GOSHEN         MOCLDY    14   8  77 NW20G26   30.22R WCI  -3
MONTICELLO*    PTCLDY    18  -2  40 NW18G28   30.27R WCI   2
LOGANSPORT*    PTCLDY    19   1  45 NW7       30.27R WCI  10
ROCHESTER*     PTCLDY    19   3  49 NW15      30.25R WCI   5
WARSAW*        PTCLDY    14   9  79 NW10      30.23R WCI   1
ANGOLA*        MOCLDY    12   7  79 NW9       30.15R WCI   0
FORT WAYNE     FLURRIES  16   9  74 NW15      30.21R WCI   1
HUNTINGTON*    FLURRIES  17   7  65 NW10G18   30.22R WCI   4
PERU/GRISSOM   PTCLDY    18   5  57 NW15      30.23R WCI   4
MARION*        PTCLDY    17  -2  44 NW13      30.24R WCI   3

$$
INZ028>050-130300-
CENTRAL INDIANA

CITY           SKY/WX    TMP DP  RH WIND       PRES   REMARKS
LAFAYETTE      CLEAR     18   4  54 NW13G24   30.31R WCI   5
KOKOMO*        MOCLDY    18   7  62 NW16      30.24R WCI   3
MUNCIE*        PTCLDY    19   5  54 NW14G24   30.22R WCI   6
INDIANAPOLIS   MOCLDY    20   6  55 NW20      30.27R WCI   4

$$
MIZ043>046-050>051-056>058-064>065-071>073-077>080-130300-
SOUTHWEST LOWER MICHIGAN

CITY           SKY/WX    TMP DP  RH WIND       PRES   REMARKS
BATTLE CREEK   MOCLDY    12   4  70 NW12      30.18R WCI  -2
BENTON HARBOR  LGT SNOW  16   7  67 NW20G28   30.26R VSB 3/4 WCI  -1
COLDWATER*     MOCLDY    14   7  73 NW13      30.16R WCI  -1
HILLSDALE*     PTCLDY    11   4  73 NW10      30.12R WCI  -2
HOLLAND        LGT SNOW  13   7  77 N14G24    30.24R WCI  -2
GRAND RAPIDS   PTCLDY    11   1  64 N18G29    30.21R WCI  -7
KALAMAZOO      LGT SNOW  14   8  77 N18       30.19R VSB 1   WCI  -3
STURGIS*       LGT SNOW  13   8  81 NW7       30.18R WCI   2
THREE RIVERS*  CLOUDY    15  10  83 NW14      30.20R WCI   0

$$
OHZ001>008-015>018-024>025-130300-
NORTHWEST OHIO

CITY           SKY/WX    TMP DP  RH WIND       PRES   REMARKS
DEFIANCE       MOCLDY    17   7  64 NW16G23   30.19R WCI   2
FINDLAY        PTCLDY    16   7  67 NW16      30.14R WCI   1
TOLEDO EXPRESS PTCLDY    15   7  70 W10       30.14R WCI   2
TOLEDO METCALF PTCLDY    17   8  67 W13       30.14R WCI   4
LIMA           CLEAR     16   9  74 NW20      30.15R WCI  -1

$$
AND FOR LAKE MICHIGAN COASTAL AND OPEN LAKE BUOY OBSERVATIONS

STATION/POSITION TEMP    WIND        PRES    VSBY  WAVE
                 AIR SEA DIR/SP/G                  HT/PER
                 (F)     (DEG/KT/KT) (MB)    (MI)  (FT/S)
CALUMET HARBOR    17                 1025.7R
MICHIGAN CITY     18     310/ 34/ 38   N/A
BURNS HARBOR      19     330/ 22/ 25 1025.4R
SAINT JOSEPH      20     310/ 24/ 31 1025.4R

$$
&&




USA.gov is the U.S. government's official web portal to all federal, state and local government web resources and services.